Regional Weather Roundup
Issued by NWS New Orleans/Baton Rouge, LA

Home | Current Version | Previous Version | Text Only | Print | Product List | Glossary On
Versions: 1 2 3 4 5 6 7 8 9 10 11 12 13 14 15 16 17 18 19 20 21 22 23 24 25 26 27 28 29 30 31 32 33 34 35 36 37 38 39 40 41 42 43 44 45 46 47 48 49 50
216
ASUS44 KLIX 260301
RWRLIX
NEW ORLEANS REGIONAL WEATHER ROUNDUP
NATIONAL WEATHER SERVICE NEW ORLEANS LA
900 PM CST TUE NOV 25 2014

NOTE: "FAIR" INDICATES FEW OR NO CLOUDS BELOW 12,000 FEET WITH NO
      SIGNIFICANT WEATHER AND/OR OBSTRUCTIONS TO VISIBILITY.
      SKY/WX - SKY CONDITION AND SIGNIFICANT WEATHER.
      TMP - AIR TEMPERATURE.     DP    - DEWPOINT TEMPERATURE.
      RH  - RELATIVE HUMIDITY.   PRES  - PRESSURE.
      HI  - HEAT INDEX.          WCI   - WIND CHILL INDEX.

*  THESE STATIONS ARE NOT NWS OR FAA STATIONS AND ARE NOT UNDER
   NWS QUALITY CONTROL.

LAZ038-040-048-061>063-065>067-069-260400-
SOUTHEAST LOUISIANA

CITY           SKY/WX    TMP DP  RH WIND       PRES   REMARKS
N.O. AUDUBON   NOT AVBL
N.O. INTL ARPT PTCLDY    50  30  46 N9        30.22F
N.O. LAKEFRONT MOCLDY    52  35  52 NW18      30.22S
N.O. DOWNTOWN*   N/A     52  30  43 N5        30.22S
SLIDELL        CLOUDY    48  32  53 NW5       30.20F
BATON ROUGE    CLEAR     43  33  68 NW5       30.25R
BOOTHVILLE     CLOUDY    54  36  50 NW21G26   30.20R
BELLE CHASSE   MOCLDY    52  30  43 N6        30.21R
BOGALUSA*        N/A     46  32  58 NW5       30.22F
NEW ROADS*     NOT AVBL
GONZALES*      NOT AVBL
HAMMOND*       NOT AVBL
HOUMA*         NOT AVBL
PORT FOURCHON* CLEAR     52  34  50 N14G21    30.24S

$$

MSZ070-080>082-260400-
SOUTHERN MISSISSIPPI

CITY           SKY/WX    TMP DP  RH WIND       PRES   REMARKS
MCCOMB         CLEAR     39  30  70 NW6       30.22R WCI  35
GULFPORT       CLOUDY    50  31  48 NW10      30.17F
BILOXI         CLOUDY    51  31  47 N12       30.17F
PASCAGOULA     CLOUDY    51  34  52 NW10      30.16F
STENNIS ARPT*  PTCLDY    48  30  49 NW6       30.19F

$$

COASTAL OBSERVATIONS
LAKE AND NEARSHORE STATIONS

STATION/POSITION TIME  TEMP    WIND        PRES    WAVE
                       AIR SEA DIR/SP/G            HT/PER
                 (UTC) (F)     (DEG/KT/KT) (MB)    (FT/S)
PASCAGOULA       0200   52     320/  9/ 17 1020.6
WAVELAND YACHT   0200   51     330/ 10/ 14 1021.4
GRAND ISLE       0200   54 60  340/ 15/ 20 1022.9
SOUTHWEST PASS   0200   57                 1022.2
NEW CANAL        0200   52 55  340/  9/ 16 1023.4
SHELL BEACH      0200   52 53  330/ 16/ 21 1022.6

OFFSHORE STATIONS

STATION/POSITION TIME  TEMP    WIND        PRES    WAVE
                       AIR SEA DIR/SP/G            HT/PER
                 (UTC) (F)     (DEG/KT/KT) (MB)    (FT/S)
64 S DAUPHIN ISL 0215   59 71   10/ 17/ 21 1020.0    5/ 5

$$




USA.gov is the U.S. government's official web portal to all federal, state and local government web resources and services.